When you browse on this site, cookies collect data to enhance your experience and personalize the content and advertising you see.
Visit our Privacy Policy to learn more. By continuing to use the site, you agree to this use of cookies and data.
  • In Romania
  • List of Countries
  • For 7 days
  • Water Temperature
  • Satellite Maps
  • Weather Map
  • Weather Widgets
  • user-avatar
    Login

    Hourly Weather Dobrich

    Today, 19 April, Friday

    Time Temperature Precipitation Wind Pressure Humidity
    00:00 +3°C° 0 mm 2 mps 745 mmHg 86%
    01:00 +3°C° 0 mm 2 mps 745 mmHg 87%
    02:00 +3°C° 0 mm 2 mps 745 mmHg 86%
    03:00 +3°C° 0 mm 2 mps 745 mmHg 87%
    04:00 +3°C° 0 mm 2 mps 745 mmHg 89%
    05:00 +2°C° 0 mm 3 mps 744 mmHg 90%
    06:00 +3°C° 0 mm 3 mps 744 mmHg 83%
    07:00 +5°C° 0 mm 4 mps 745 mmHg 77%
    08:00 +7°C° 0 mm 4 mps 745 mmHg 71%
    09:00 +10°C° 0 mm 4 mps 745 mmHg 66%
    10:00 +11°C° 0 mm 4 mps 744 mmHg 60%
    11:00 +12°C° 0 mm 4 mps 744 mmHg 55%
    12:00 +11°C° 0.8 mm 4 mps 744 mmHg 63%
    13:00 +10°C° 0.8 mm 3 mps 744 mmHg 70%
    14:00 +9°C° 0.8 mm 3 mps 744 mmHg 77%
    15:00 +9°C° 0.9 mm 3 mps 744 mmHg 79%
    16:00 +8°C° 0.9 mm 3 mps 744 mmHg 81%
    17:00 +7°C° 0.9 mm 3 mps 743 mmHg 83%
    18:00 +7°C° 0.1 mm 2 mps 744 mmHg 84%
    19:00 +6°C° 0.1 mm 2 mps 744 mmHg 85%
    20:00 +7°C° 0.1 mm 1 mps 744 mmHg 86%
    21:00 +6°C° 0.1 mm 1 mps 745 mmHg 86%
    22:00 +5°C° 0.1 mm 1 mps 745 mmHg 86%
    23:00 +5°C° 0.1 mm 1 mps 745 mmHg 86%

    Tomorrow, 20 April, Saturday

    Time Temperature Precipitation Wind Pressure Humidity
    00:00 +4°C° 0 mm 1 mps 745 mmHg 86%
    01:00 +3°C° 0 mm 2 mps 745 mmHg 86%
    02:00 +3°C° 0 mm 2 mps 745 mmHg 86%
    03:00 +3°C° 0 mm 2 mps 745 mmHg 86%
    04:00 +2°C° 0 mm 2 mps 745 mmHg 85%
    05:00 +1°C° 0 mm 3 mps 745 mmHg 85%
    06:00 +2°C° 0.1 mm 3 mps 745 mmHg 82%
    07:00 +4°C° 0.1 mm 4 mps 746 mmHg 78%
    08:00 +6°C° 0.1 mm 5 mps 746 mmHg 75%
    09:00 +7°C° 0.2 mm 5 mps 746 mmHg 67%
    10:00 +8°C° 0.2 mm 6 mps 746 mmHg 59%
    11:00 +9°C° 0.2 mm 7 mps 746 mmHg 52%
    12:00 +9°C° 0.1 mm 7 mps 746 mmHg 51%
    13:00 +10°C° 0.1 mm 6 mps 746 mmHg 49%
    14:00 +10°C° 0.1 mm 6 mps 746 mmHg 48%
    15:00 +9°C° 0 mm 5 mps 746 mmHg 51%
    16:00 +9°C° 0 mm 5 mps 746 mmHg 53%
    17:00 +10°C° 0 mm 4 mps 746 mmHg 56%
    18:00 +8°C° 0 mm 3 mps 746 mmHg 60%
    19:00 +6°C° 0 mm 2 mps 746 mmHg 64%
    20:00 +6°C° 0 mm 1 mps 746 mmHg 69%
    21:00 +5°C° 0 mm 1 mps 746 mmHg 67%
    22:00 +5°C° 0 mm 1 mps 746 mmHg 64%
    23:00 +5°C° 0 mm 1 mps 746 mmHg 62%

    Day after tomorrow, 21 April, Sunday

    Time Temperature Precipitation Wind Pressure Humidity
    00:00 +3°C° 0 mm 2 mps 746 mmHg 64%
    01:00 +3°C° 0 mm 2 mps 746 mmHg 66%
    02:00 +2°C° 0 mm 3 mps 745 mmHg 68%
    03:00 +2°C° 0 mm 3 mps 745 mmHg 71%
    04:00 +2°C° 0 mm 3 mps 745 mmHg 74%
    05:00 +2°C° 0 mm 3 mps 745 mmHg 76%
    06:00 +4°C° 0 mm 3 mps 745 mmHg 73%
    07:00 +5°C° 0 mm 3 mps 746 mmHg 69%
    08:00 +8°C° 0 mm 3 mps 746 mmHg 66%
    09:00 +9°C° 0 mm 3 mps 746 mmHg 59%
    10:00 +11°C° 0 mm 3 mps 746 mmHg 53%
    11:00 +12°C° 0 mm 3 mps 746 mmHg 46%
    12:00 +13°C° 0 mm 2 mps 746 mmHg 47%
    13:00 +13°C° 0 mm 2 mps 745 mmHg 49%
    14:00 +13°C° 0 mm 2 mps 745 mmHg 50%
    15:00 +12°C° 0 mm 2 mps 745 mmHg 53%
    16:00 +12°C° 0 mm 2 mps 745 mmHg 56%
    17:00 +10°C° 0 mm 2 mps 744 mmHg 58%
    18:00 +9°C° 0 mm 2 mps 744 mmHg 62%
    19:00 +8°C° 0 mm 2 mps 744 mmHg 66%
    20:00 +6°C° 0 mm 2 mps 744 mmHg 70%
    21:00 +5°C° 0 mm 2 mps 745 mmHg 70%
    22:00 +5°C° 0 mm 2 mps 745 mmHg 70%
    23:00 +5°C° 0 mm 1 mps 745 mmHg 70%

    22 April, Monday

    Time Temperature Precipitation Wind Pressure Humidity
    00:00 +5°C° 0 mm 1 mps 745 mmHg 69%
    01:00 +5°C° 0 mm 1 mps 744 mmHg 69%
    02:00 +5°C° 0 mm 1 mps 744 mmHg 68%
    03:00 +5°C° 0 mm 1 mps 744 mmHg 68%
    04:00 +4°C° 0 mm 1 mps 744 mmHg 68%
    05:00 +4°C° 0 mm 1 mps 744 mmHg 69%
    06:00 +5°C° 0 mm 2 mps 745 mmHg 65%
    07:00 +7°C° 0 mm 2 mps 745 mmHg 62%
    08:00 +8°C° 0 mm 3 mps 745 mmHg 58%
    09:00 +10°C° 0 mm 3 mps 746 mmHg 55%
    10:00 +11°C° 0 mm 3 mps 746 mmHg 51%
    11:00 +12°C° 0 mm 3 mps 746 mmHg 47%
    12:00 +12°C° 0 mm 4 mps 746 mmHg 47%
    13:00 +13°C° 0 mm 4 mps 746 mmHg 46%
    14:00 +13°C° 0 mm 4 mps 746 mmHg 45%
    15:00 +12°C° 0 mm 4 mps 745 mmHg 48%
    16:00 +12°C° 0 mm 4 mps 745 mmHg 51%
    17:00 +11°C° 0 mm 4 mps 745 mmHg 54%
    18:00 +8°C° 0 mm 4 mps 745 mmHg 62%
    19:00 +7°C° 0 mm 3 mps 746 mmHg 71%
    20:00 +5°C° 0 mm 2 mps 746 mmHg 80%
    21:00 +5°C° 0 mm 2 mps 746 mmHg 83%
    22:00 +4°C° 0 mm 2 mps 746 mmHg 86%
    23:00 +4°C° 0 mm 2 mps 746 mmHg 90%

    23 April, Tuesday

    Time Temperature Precipitation Wind Pressure Humidity
    00:00 +4°C° 0 mm 2 mps 746 mmHg 90%
    01:00 +4°C° 0 mm 2 mps 746 mmHg 90%
    02:00 +5°C° 0 mm 1 mps 746 mmHg 90%
    03:00 +5°C° 0 mm 1 mps 746 mmHg 89%
    04:00 +4°C° 0 mm 2 mps 746 mmHg 88%
    05:00 +4°C° 0 mm 2 mps 746 mmHg 88%
    06:00 +5°C° 0 mm 2 mps 747 mmHg 82%
    07:00 +7°C° 0 mm 2 mps 747 mmHg 76%
    08:00 +9°C° 0 mm 3 mps 747 mmHg 70%
    09:00 +10°C° 0 mm 4 mps 748 mmHg 66%
    10:00 +10°C° 0 mm 5 mps 748 mmHg 61%
    11:00 +12°C° 0 mm 5 mps 748 mmHg 57%
    12:00 +12°C° 0 mm 5 mps 748 mmHg 57%
    13:00 +11°C° 0 mm 6 mps 747 mmHg 57%
    14:00 +11°C° 0 mm 6 mps 747 mmHg 56%
    15:00 +11°C° 0 mm 6 mps 747 mmHg 59%
    16:00 +10°C° 0 mm 6 mps 747 mmHg 62%
    17:00 +10°C° 0 mm 6 mps 746 mmHg 64%
    18:00 +9°C° 0 mm 5 mps 746 mmHg 70%
    19:00 +7°C° 0 mm 5 mps 747 mmHg 75%
    20:00 +6°C° 0 mm 4 mps 747 mmHg 81%
    21:00 +6°C° 0.1 mm 4 mps 747 mmHg 82%
    22:00 +7°C° 0.1 mm 4 mps 747 mmHg 84%
    23:00 +7°C° 0.1 mm 5 mps 747 mmHg 85%

    24 April, Wednesday

    Time Temperature Precipitation Wind Pressure Humidity
    00:00 +7°C° 0.2 mm 4 mps 746 mmHg 88%
    01:00 +7°C° 0.2 mm 4 mps 746 mmHg 90%
    02:00 +7°C° 0.2 mm 4 mps 746 mmHg 93%
    03:00 +6°C° 0 mm 4 mps 746 mmHg 93%
    04:00 +6°C° 0 mm 4 mps 746 mmHg 93%
    05:00 +6°C° 0 mm 4 mps 746 mmHg 93%
    06:00 +6°C° 0.9 mm 4 mps 747 mmHg 93%
    07:00 +7°C° 0.9 mm 4 mps 747 mmHg 93%
    08:00 +7°C° 0.9 mm 4 mps 747 mmHg 93%
    09:00 +8°C° 0.2 mm 4 mps 747 mmHg 87%
    10:00 +10°C° 0.2 mm 5 mps 748 mmHg 81%
    11:00 +12°C° 0.2 mm 5 mps 748 mmHg 74%
    12:00 +13°C° 0 mm 5 mps 748 mmHg 72%
    13:00 +13°C° 0 mm 5 mps 747 mmHg 69%
    14:00 +14°C° 0 mm 5 mps 747 mmHg 66%
    15:00 +13°C° 0 mm 5 mps 747 mmHg 68%
    16:00 +13°C° 0 mm 5 mps 747 mmHg 69%
    17:00 +12°C° 0 mm 5 mps 747 mmHg 71%
    18:00 +11°C° 0 mm 4 mps 747 mmHg 79%
    19:00 +9°C° 0 mm 3 mps 747 mmHg 87%
    20:00 +7°C° 0 mm 3 mps 747 mmHg 95%
    21:00 +7°C° 0 mm 3 mps 747 mmHg 95%
    22:00 +7°C° 0 mm 3 mps 747 mmHg 96%
    23:00 +5°C° 0 mm 3 mps 747 mmHg 97%
    Show more